Skip Page Navigation
NASA JPL Caltech
NASA Logo - Jet Propulsion Laboratory + View the NASA Portal
+ Center for Near-Earth Object Studies
JPL Home Earth Solar System Stars & Galaxies Technology
JPL Solar System Dynamics
BODIES ORBITS EPHEMERIDES TOOLS PHYSICAL DATA DISCOVERY FAQ SITE MAP
IMPORTANT: The SSD Announcement email list is now available. Major changes are coming in the near future, including possible hostname and/or URL changes. To be notified of such changes, subscribe to this email list.

Please visit this page for more details.


JPL Small-Body Database Browser
Search: [ help ]  
441411 (2008 GP17)
Classification: Main-belt Asteroid          SPK-ID: 2441411
Ephemeris | Orbit Diagram | Orbital Elements | Mission Design | Physical Parameters | Discovery Circumstances ]

[ show orbit diagram ]
Orbital Elements at Epoch 2458600.5 (2019-Apr-27.0) TDB
Reference: JPL 6 (heliocentric ecliptic J2000)
 Element Value Uncertainty (1-sigma)   Units 
e .02934110582400918 6.499e-08  
a 2.157839957481391 2.6767e-08 au
q 2.094526546937654 1.3825e-07 au
i 5.628138693684375 7.9161e-06 deg
node 80.66814699205452 0.00010615 deg
peri 149.773843791808 0.00027923 deg
M 145.2408137575586 0.00026651 deg
tp 2458133.396151104605
(2018-Jan-14.89615110)
0.00085105 TDB
period 1157.783279037784
3.17
2.1543e-05
5.898e-08
d
yr
n .3109390215923575 5.7856e-09 deg/d
Q 2.221153368025128 2.7552e-08 au
  Orbit Determination Parameters
   # obs. used (total)      72  
   data-arc span      4283 days (11.73 yr)  
   first obs. used      2005-05-08  
   last obs. used      2017-01-28  
   planetary ephem.      DE431  
   SB-pert. ephem.      SB431-N16  
   condition code      0  
   norm. resid. RMS      .62073  
   source      ORB  
   producer      Otto Matic  
   solution date      2017-Apr-09 12:38:40  

Additional Information
 Earth MOID = 1.08384 au 
 Jupiter MOID = 2.75294 au 
 T_jup = 3.693 
[ show covariance matrix ]

Ephemeris | Orbit Diagram | Orbital Elements | Mission Design | Physical Parameters | Discovery Circumstances ]

Physical Parameter Table
Parameter Symbol Value Units Sigma Reference Notes
absolute magnitude H 18.6   n/a MPO402740  

441411 (2008 GP17)          Discovered 2008-Apr-04 by Spacewatch at Kitt Peak
Reference: Last Updated: 2015-09-02

Alternate Designations
 2008 GP17 = 2005 JP110 
Ephemeris | Orbit Diagram | Orbital Elements | Mission Design | Physical Parameters | Discovery Circumstances ]
ABOUT SSD CREDITS/AWARDS PRIVACY/COPYRIGHT GLOSSARY LINKS
FirstGov
(server date/time)  
NASA Home Page
Site Manager:   Ryan S. Park
Webmaster  Alan B. Chamberlin